Regional Weather Roundup
Issued by NWS Tiyan, Guam

Home | Current Version | Previous Version | Text Only | Print | Product List | Glossary On
Versions: 1 2 3 4 5 6 7 8 9 10 11 12 13 14 15 16 17 18 19 20 21 22 23 24 25 26 27 28 29 30 31 32 33 34 35 36 37 38 39 40 41 42 43 44 45 46 47 48 49 50
000
ASGM40 PGUM 280112
RWRGUM
WEATHER ROUNDUP FOR THE MARIANAS
NATIONAL WEATHER SERVICE TIYAN GU
1100 AM CHST WED JUN 28 2017

GUZ001>004-280200-
MARIANA ISLANDS-

CITY           SKY/WX    TMP DP  RH WIND       PRES   REMARKS
GUAM AIRPORT   MOSUNNY   88  79  74 E14       29.93S HX 102
ANDERSEN AFB   PTSUNNY   84  77  79 E12       29.93F HX  94
ROTA AIRPORT   MOSUNNY   82  75  78 E10       29.93S
TINIAN AP      MOSUNNY   86  77  74 E15       29.90F HX  97
SAIPAN AP      MOSUNNY   90  79  70 E17       29.91F HX 105

$$




USA.gov is the U.S. government's official web portal to all federal, state and local government web resources and services.